• In France
  • List of Countries
  • For 7 days
  • Water Temperature
  • Satellite Maps
  • Weather Map
  • Weather Widgets
  • user-avatar
    Login

    Hourly Weather Marino

    Today, 22 August, Wednesday

    Time Temperature Precipitation Wind Pressure Humidity
    00:00 +18°C° 0.1 mm 3 mps 740 mmHg 90%
    01:00 +17°C° 0 mm 3 mps 741 mmHg 91%
    02:00 +17°C° 0 mm 3 mps 741 mmHg 92%
    03:00 +16°C° 0 mm 2 mps 741 mmHg 94%
    04:00 +14°C° 0 mm 3 mps 741 mmHg 94%
    05:00 +14°C° 0 mm 3 mps 742 mmHg 93%
    06:00 +14°C° 0 mm 3 mps 742 mmHg 93%
    07:00 +15°C° 0 mm 4 mps 742 mmHg 85%
    08:00 +17°C° 0 mm 4 mps 743 mmHg 77%
    09:00 +17°C° 0 mm 5 mps 743 mmHg 69%
    10:00 +19°C° 0 mm 5 mps 744 mmHg 61%
    11:00 +20°C° 0 mm 5 mps 744 mmHg 54%
    12:00 +21°C° 0 mm 6 mps 745 mmHg 47%
    13:00 +21°C° 0 mm 6 mps 745 mmHg 45%
    14:00 +21°C° 0 mm 6 mps 745 mmHg 44%
    15:00 +21°C° 0 mm 5 mps 745 mmHg 42%
    16:00 +21°C° 0 mm 5 mps 745 mmHg 45%
    17:00 +20°C° 0 mm 4 mps 745 mmHg 48%
    18:00 +20°C° 0 mm 3 mps 746 mmHg 51%
    19:00 +18°C° 0 mm 3 mps 746 mmHg 55%
    20:00 +17°C° 0 mm 3 mps 746 mmHg 59%
    21:00 +15°C° 0 mm 2 mps 747 mmHg 63%
    22:00 +15°C° 0 mm 2 mps 747 mmHg 64%
    23:00 +14°C° 0 mm 2 mps 747 mmHg 66%

    Tomorrow, 23 August, Thursday

    Time Temperature Precipitation Wind Pressure Humidity
    00:00 +14°C° 0 mm 2 mps 748 mmHg 68%
    01:00 +13°C° 0 mm 2 mps 748 mmHg 70%
    02:00 +13°C° 0 mm 2 mps 748 mmHg 72%
    03:00 +12°C° 0 mm 2 mps 748 mmHg 75%
    04:00 +12°C° 0 mm 2 mps 749 mmHg 76%
    05:00 +12°C° 0 mm 2 mps 749 mmHg 77%
    06:00 +10°C° 0 mm 2 mps 749 mmHg 79%
    07:00 +13°C° 0 mm 2 mps 749 mmHg 72%
    08:00 +15°C° 0 mm 2 mps 749 mmHg 65%
    09:00 +17°C° 0 mm 2 mps 750 mmHg 58%
    10:00 +18°C° 0 mm 2 mps 750 mmHg 54%
    11:00 +19°C° 0 mm 2 mps 750 mmHg 49%
    12:00 +20°C° 0 mm 2 mps 750 mmHg 44%
    13:00 +20°C° 0 mm 2 mps 749 mmHg 42%
    14:00 +21°C° 0 mm 2 mps 749 mmHg 40%
    15:00 +21°C° 0 mm 2 mps 749 mmHg 39%
    16:00 +22°C° 0 mm 1 mps 749 mmHg 41%
    17:00 +22°C° 0 mm 1 mps 749 mmHg 43%
    18:00 +22°C° 0 mm 1 mps 749 mmHg 46%
    19:00 +20°C° 0 mm 1 mps 749 mmHg 49%
    20:00 +18°C° 0 mm 1 mps 749 mmHg 53%
    21:00 +15°C° 0 mm 1 mps 749 mmHg 56%
    22:00 +15°C° 0 mm 1 mps 749 mmHg 57%
    23:00 +15°C° 0 mm 1 mps 749 mmHg 59%

    Day after tomorrow, 24 August, Friday

    Time Temperature Precipitation Wind Pressure Humidity
    00:00 +14°C° 0 mm 1 mps 749 mmHg 60%
    01:00 +14°C° 0 mm 1 mps 749 mmHg 62%
    02:00 +13°C° 0 mm 1 mps 749 mmHg 63%
    03:00 +13°C° 0 mm 1 mps 749 mmHg 64%
    04:00 +13°C° 0 mm 1 mps 749 mmHg 65%
    05:00 +13°C° 0 mm 1 mps 749 mmHg 66%
    06:00 +12°C° 0 mm 1 mps 749 mmHg 67%
    07:00 +14°C° 0 mm 1 mps 749 mmHg 62%
    08:00 +16°C° 0 mm 1 mps 749 mmHg 57%
    09:00 +19°C° 0 mm 1 mps 749 mmHg 52%
    10:00 +21°C° 0 mm 1 mps 749 mmHg 48%
    11:00 +22°C° 0 mm 1 mps 748 mmHg 44%
    12:00 +23°C° 0 mm 2 mps 748 mmHg 40%
    13:00 +24°C° 0 mm 1 mps 748 mmHg 38%
    14:00 +24°C° 0 mm 1 mps 748 mmHg 37%
    15:00 +25°C° 0 mm 1 mps 747 mmHg 35%
    16:00 +25°C° 0 mm 1 mps 747 mmHg 38%
    17:00 +24°C° 0 mm 1 mps 747 mmHg 41%
    18:00 +24°C° 0 mm 1 mps 746 mmHg 44%
    19:00 +22°C° 0 mm 1 mps 746 mmHg 46%
    20:00 +20°C° 0 mm 1 mps 746 mmHg 48%
    21:00 +18°C° 0 mm 1 mps 746 mmHg 50%
    22:00 +17°C° 0 mm 2 mps 746 mmHg 52%
    23:00 +16°C° 0 mm 2 mps 746 mmHg 53%

    25 August, Saturday

    Time Temperature Precipitation Wind Pressure Humidity
    00:00 +16°C° 0 mm 2 mps 746 mmHg 55%
    01:00 +15°C° 0 mm 2 mps 746 mmHg 55%
    02:00 +15°C° 0 mm 2 mps 746 mmHg 56%
    03:00 +15°C° 0 mm 2 mps 746 mmHg 57%
    04:00 +14°C° 0 mm 2 mps 746 mmHg 59%
    05:00 +14°C° 0 mm 2 mps 746 mmHg 60%
    06:00 +14°C° 0 mm 2 mps 745 mmHg 62%
    07:00 +16°C° 0 mm 2 mps 746 mmHg 58%
    08:00 +18°C° 0 mm 2 mps 746 mmHg 54%
    09:00 +20°C° 0 mm 2 mps 746 mmHg 50%
    10:00 +23°C° 0 mm 2 mps 746 mmHg 46%
    11:00 +24°C° 0 mm 3 mps 745 mmHg 42%
    12:00 +26°C° 0 mm 3 mps 745 mmHg 37%
    13:00 +26°C° 0 mm 3 mps 745 mmHg 36%
    14:00 +27°C° 0 mm 2 mps 745 mmHg 35%
    15:00 +27°C° 0 mm 2 mps 744 mmHg 34%
    16:00 +26°C° 0 mm 2 mps 744 mmHg 37%
    17:00 +26°C° 0 mm 2 mps 744 mmHg 40%
    18:00 +26°C° 0 mm 2 mps 744 mmHg 43%
    19:00 +24°C° 0 mm 2 mps 744 mmHg 45%
    20:00 +21°C° 0 mm 2 mps 744 mmHg 48%
    21:00 +19°C° 0 mm 2 mps 744 mmHg 50%
    22:00 +19°C° 0 mm 2 mps 744 mmHg 51%
    23:00 +18°C° 0 mm 2 mps 744 mmHg 52%

    26 August, Sunday

    Time Temperature Precipitation Wind Pressure Humidity
    00:00 +17°C° 0 mm 2 mps 744 mmHg 53%
    01:00 +17°C° 0 mm 2 mps 744 mmHg 55%
    02:00 +16°C° 0 mm 2 mps 744 mmHg 56%
    03:00 +16°C° 0 mm 2 mps 744 mmHg 57%
    04:00 +16°C° 0 mm 2 mps 744 mmHg 58%
    05:00 +15°C° 0 mm 2 mps 744 mmHg 59%
    06:00 +15°C° 0 mm 2 mps 744 mmHg 61%
    07:00 +17°C° 0 mm 2 mps 744 mmHg 58%
    08:00 +19°C° 0 mm 3 mps 744 mmHg 55%
    09:00 +21°C° 0 mm 3 mps 745 mmHg 52%
    10:00 +22°C° 0 mm 3 mps 744 mmHg 47%
    11:00 +25°C° 0 mm 4 mps 744 mmHg 42%
    12:00 +27°C° 0 mm 4 mps 744 mmHg 38%
    13:00 +27°C° 0 mm 3 mps 744 mmHg 36%
    14:00 +28°C° 0 mm 3 mps 744 mmHg 34%
    15:00 +28°C° 0 mm 3 mps 744 mmHg 33%
    16:00 +27°C° 0 mm 2 mps 744 mmHg 37%
    17:00 +27°C° 0 mm 2 mps 743 mmHg 40%
    18:00 +26°C° 0 mm 2 mps 743 mmHg 44%
    19:00 +24°C° 0 mm 2 mps 743 mmHg 46%
    20:00 +23°C° 0 mm 2 mps 743 mmHg 49%
    21:00 +20°C° 0 mm 2 mps 743 mmHg 51%
    22:00 +19°C° 0 mm 2 mps 743 mmHg 53%
    23:00 +19°C° 0 mm 2 mps 743 mmHg 54%

    27 August, Monday

    Time Temperature Precipitation Wind Pressure Humidity
    00:00 +18°C° 0 mm 2 mps 743 mmHg 56%
    01:00 +18°C° 0 mm 2 mps 743 mmHg 58%
    02:00 +17°C° 0 mm 2 mps 743 mmHg 60%
    03:00 +17°C° 0 mm 2 mps 743 mmHg 62%
    04:00 +17°C° 0 mm 2 mps 744 mmHg 64%
    05:00 +16°C° 0 mm 2 mps 744 mmHg 67%
    06:00 +16°C° 0 mm 2 mps 744 mmHg 70%
    07:00 +18°C° 0 mm 3 mps 744 mmHg 66%
    08:00 +20°C° 0 mm 3 mps 744 mmHg 62%
    09:00 +22°C° 0 mm 3 mps 745 mmHg 58%
    10:00 +24°C° 0 mm 3 mps 745 mmHg 53%
    11:00 +26°C° 0 mm 3 mps 745 mmHg 48%
    12:00 +28°C° 0 mm 4 mps 745 mmHg 42%
    13:00 +28°C° 0 mm 3 mps 745 mmHg 40%
    14:00 +29°C° 0 mm 3 mps 745 mmHg 38%
    15:00 +29°C° 0 mm 3 mps 745 mmHg 35%
    16:00 +29°C° 0 mm 2 mps 745 mmHg 39%
    17:00 +28°C° 0 mm 2 mps 745 mmHg 42%
    18:00 +27°C° 0 mm 2 mps 745 mmHg 46%
    19:00 +26°C° 0 mm 2 mps 745 mmHg 49%
    20:00 +24°C° 0 mm 2 mps 745 mmHg 52%
    21:00 +21°C° 0 mm 2 mps 745 mmHg 55%
    22:00 +20°C° 0 mm 2 mps 745 mmHg 56%
    23:00 +20°C° 0 mm 2 mps 745 mmHg 58%
    Show more